ADN2 EDDK-EDDV

Flight info

Callsign ADN2
Flight time 0h 31m
Altitude 23000
Route PODIP1R PODIP Y867 WRB WRB8P
Aircraft C750/M-SBDE3GHRWXY/S

Departure

Time 2026-04-23 12:34
Airport Cologne Bonn Airport (EDDK)

Arrival

Time 2026-04-23 13:06
Airport Hannover Airport (EDDV)
Time Latitude Longitude Altitude Speed Heading
2026-04-23 12:15 50.87201 7.12629 233 ft 0 kts 107°
2026-04-23 12:27 50.87200 7.12633 233 ft 1 kts 109°
2026-04-23 12:27 50.87190 7.12644 234 ft 3 kts 185°
2026-04-23 12:27 50.87165 7.12613 233 ft 5 kts 224°
2026-04-23 12:27 50.87132 7.12555 233 ft 8 kts 228°
2026-04-23 12:28 50.87089 7.12479 233 ft 10 kts 225°
2026-04-23 12:28 50.87030 7.12516 233 ft 11 kts 137°
2026-04-23 12:28 50.86963 7.12612 234 ft 13 kts 137°
2026-04-23 12:28 50.86896 7.12710 236 ft 14 kts 137°
2026-04-23 12:29 50.86823 7.12813 237 ft 14 kts 139°
2026-04-23 12:29 50.86743 7.12930 240 ft 15 kts 136°
2026-04-23 12:29 50.86657 7.13058 244 ft 20 kts 138°
2026-04-23 12:29 50.86540 7.13225 247 ft 25 kts 137°
2026-04-23 12:30 50.86527 7.13448 252 ft 22 kts 64°
2026-04-23 12:30 50.86591 7.13659 254 ft 20 kts 64°
2026-04-23 12:30 50.86651 7.13856 257 ft 19 kts 64°
2026-04-23 12:30 50.86709 7.14043 256 ft 19 kts 63°
2026-04-23 12:31 50.86678 7.14217 257 ft 17 kts 139°
2026-04-23 12:31 50.86593 7.14339 261 ft 15 kts 136°
2026-04-23 12:31 50.86507 7.14463 265 ft 17 kts 137°
2026-04-23 12:31 50.86415 7.14598 270 ft 21 kts 138°
2026-04-23 12:32 50.86297 7.14769 275 ft 24 kts 138°
2026-04-23 12:32 50.86162 7.14964 279 ft 28 kts 140°
2026-04-23 12:32 50.86048 7.15226 280 ft 29 kts 78°
2026-04-23 12:32 50.86179 7.15350 282 ft 20 kts 345°
2026-04-23 12:33 50.86225 7.15332 281 ft 0 kts 346°
2026-04-23 12:33 50.86234 7.15329 281 ft 2 kts 346°
2026-04-23 12:33 50.86256 7.15321 281 ft 5 kts 346°
2026-04-23 12:33 50.86328 7.15304 279 ft 16 kts 354°
2026-04-23 12:34 50.86469 7.15196 277 ft 37 kts 317°
2026-04-23 12:34 50.86845 7.14647 263 ft 121 kts 317°
2026-04-23 12:34 50.87658 7.13472 562 ft 184 kts 320°
2026-04-23 12:34 50.88553 7.12244 1779 ft 190 kts 318°
2026-04-23 12:35 50.89350 7.10965 3237 ft 179 kts 322°
2026-04-23 12:35 50.90522 7.10196 4370 ft 187 kts
2026-04-23 12:35 50.91674 7.11085 5426 ft 200 kts 48°
2026-04-23 12:35 50.92587 7.12648 6460 ft 210 kts 36°
2026-04-23 12:36 50.93663 7.14192 7541 ft 221 kts 56°
2026-04-23 12:36 50.94304 7.16411 8472 ft 239 kts 63°
2026-04-23 12:36 50.95075 7.18888 9467 ft 255 kts 61°
2026-04-23 12:36 50.95843 7.21325 10268 ft 270 kts 61°
2026-04-23 12:37 50.96696 7.24019 11185 ft 281 kts 61°
2026-04-23 12:37 50.97588 7.26845 12226 ft 288 kts 61°
2026-04-23 12:37 50.98480 7.29667 13262 ft 292 kts 61°
2026-04-23 12:37 50.98891 7.30971 13710 ft 295 kts 60°
2026-04-23 12:38 51.00255 7.35290 15218 ft 300 kts 61°
2026-04-23 12:38 51.01203 7.38295 16195 ft 304 kts 61°
2026-04-23 12:38 51.01924 7.41451 17056 ft 313 kts 81°
2026-04-23 12:38 51.01695 7.44570 17868 ft 321 kts 105°
2026-04-23 12:39 51.00969 7.47909 18791 ft 322 kts 103°
2026-04-23 12:39 51.00306 7.51347 19676 ft 325 kts 104°
2026-04-23 12:39 50.99609 7.54902 20544 ft 328 kts 104°
2026-04-23 12:39 50.99219 7.58187 21284 ft 326 kts 85°
2026-04-23 12:40 50.99872 7.61666 22049 ft 327 kts 57°
2026-04-23 12:40 51.01392 7.64485 22782 ft 330 kts 52°
2026-04-23 12:40 51.02699 7.67551 23297 ft 339 kts 55°
2026-04-23 12:40 51.03519 7.69472 23311 ft 350 kts 59°
2026-04-23 12:41 51.05217 7.74324 23347 ft 374 kts 62°
2026-04-23 12:41 51.06516 7.78131 23347 ft 391 kts 62°
2026-04-23 12:41 51.07786 7.81858 23345 ft 406 kts 62°
2026-04-23 12:41 51.09123 7.85802 23349 ft 419 kts 62°
2026-04-23 12:42 51.10562 7.90046 23341 ft 432 kts 62°
2026-04-23 12:42 51.12047 7.94435 23336 ft 444 kts 62°
2026-04-23 12:42 51.13539 7.98861 23327 ft 454 kts 62°
2026-04-23 12:42 51.15075 8.03407 23323 ft 464 kts 62°
2026-04-23 12:43 51.16626 8.08016 23328 ft 466 kts 62°
2026-04-23 12:43 51.18141 8.12524 23314 ft 460 kts 62°
2026-04-23 12:43 51.19650 8.17023 23316 ft 455 kts 62°
2026-04-23 12:43 51.21047 8.21197 23312 ft 450 kts 62°
2026-04-23 12:44 51.22527 8.25630 23314 ft 446 kts 62°
2026-04-23 12:44 51.23994 8.30025 23316 ft 443 kts 62°
2026-04-23 12:44 51.25438 8.34362 23314 ft 440 kts 62°
2026-04-23 12:44 51.26887 8.38722 23314 ft 437 kts 62°
2026-04-23 12:45 51.28326 8.43064 23313 ft 435 kts 62°
2026-04-23 12:45 51.29724 8.47282 23319 ft 433 kts 62°
2026-04-23 12:45 51.31119 8.51505 23317 ft 431 kts 62°
2026-04-23 12:45 51.32429 8.55468 23317 ft 433 kts 62°
2026-04-23 12:46 51.33853 8.59791 23324 ft 440 kts 62°
2026-04-23 12:46 51.35294 8.64173 23328 ft 446 kts 62°
2026-04-23 12:46 51.36748 8.68600 23331 ft 452 kts 63°
2026-04-23 12:46 51.38191 8.72997 23334 ft 457 kts 63°
2026-04-23 12:47 51.39700 8.77608 23335 ft 461 kts 63°
2026-04-23 12:47 51.41198 8.82194 23338 ft 463 kts 63°
2026-04-23 12:47 51.42679 8.86740 23324 ft 456 kts 63°
2026-04-23 12:47 51.44012 8.90833 23325 ft 450 kts 63°
2026-04-23 12:48 51.45473 8.95332 23325 ft 445 kts 63°
2026-04-23 12:48 51.46896 8.99719 23320 ft 439 kts 63°
2026-04-23 12:48 51.48298 9.04047 23328 ft 435 kts 63°
2026-04-23 12:48 51.49681 9.08306 23324 ft 430 kts 61°
2026-04-23 12:49 51.51527 9.12037 23304 ft 428 kts 41°
2026-04-23 12:49 51.54011 9.14601 23347 ft 425 kts 32°
2026-04-23 12:49 51.56502 9.17165 23336 ft 422 kts 34°
2026-04-23 12:49 51.58936 9.19612 23333 ft 420 kts 33°
2026-04-23 12:50 51.61371 9.22108 23329 ft 418 kts 33°
2026-04-23 12:50 51.63851 9.24642 23324 ft 416 kts 33°
2026-04-23 12:50 51.66290 9.27143 23324 ft 415 kts 33°
2026-04-23 12:50 51.68558 9.29469 23321 ft 413 kts 33°
2026-04-23 12:51 51.71030 9.32007 23317 ft 412 kts 33°
2026-04-23 12:51 51.73446 9.34493 23315 ft 411 kts 33°
2026-04-23 12:51 51.75842 9.36961 23313 ft 410 kts 33°
2026-04-23 12:51 51.78213 9.39409 23315 ft 409 kts 33°
2026-04-23 12:52 51.80594 9.41873 23313 ft 408 kts 33°
2026-04-23 12:52 51.82981 9.44343 23310 ft 404 kts 33°
2026-04-23 12:52 51.85327 9.46774 23289 ft 394 kts 33°
2026-04-23 12:52 51.87454 9.48983 22940 ft 393 kts 33°
2026-04-23 12:53 51.89770 9.51390 22136 ft 401 kts 33°
2026-04-23 12:53 51.92159 9.53877 21378 ft 405 kts 33°
2026-04-23 12:53 51.94530 9.56345 20618 ft 410 kts 33°
2026-04-23 12:53 51.96702 9.58614 19959 ft 401 kts 32°
2026-04-23 12:54 51.99101 9.61115 18962 ft 386 kts 32°
2026-04-23 12:54 52.01289 9.63405 18337 ft 366 kts 32°
2026-04-23 12:54 52.03316 9.65523 17829 ft 347 kts 33°
2026-04-23 12:54 52.05186 9.67485 17395 ft 330 kts 32°
2026-04-23 12:55 52.07136 9.69531 16691 ft 322 kts 32°
2026-04-23 12:55 52.08994 9.71481 16130 ft 311 kts 32°
2026-04-23 12:55 52.10794 9.73372 15448 ft 306 kts 31°
2026-04-23 12:55 52.12481 9.75149 14763 ft 303 kts 31°
2026-04-23 12:56 52.14245 9.77004 14089 ft 299 kts 31°
2026-04-23 12:56 52.15979 9.78833 13449 ft 294 kts 31°
2026-04-23 12:56 52.17715 9.80660 12808 ft 289 kts 30°
2026-04-23 12:56 52.19196 9.82219 12260 ft 285 kts 30°
2026-04-23 12:57 52.20958 9.84074 11600 ft 281 kts 30°
2026-04-23 12:57 52.22570 9.85774 10970 ft 275 kts 30°
2026-04-23 12:57 52.24178 9.87472 10319 ft 270 kts 30°
2026-04-23 12:57 52.25742 9.89053 9683 ft 264 kts 25°
2026-04-23 12:58 52.27343 9.90438 9055 ft 260 kts 25°
2026-04-23 12:58 52.28921 9.91853 8421 ft 256 kts 25°
2026-04-23 12:58 52.30455 9.93223 7813 ft 248 kts 25°
2026-04-23 12:58 52.31852 9.94468 7226 ft 242 kts 25°
2026-04-23 12:59 52.33298 9.95761 6616 ft 236 kts 25°
2026-04-23 12:59 52.34717 9.97031 6023 ft 231 kts 24°
2026-04-23 12:59 52.36126 9.98292 5509 ft 223 kts 24°
2026-04-23 12:59 52.37391 9.99433 5484 ft 207 kts 24°
2026-04-23 13:00 52.38650 10.00557 5431 ft 201 kts 24°
2026-04-23 13:00 52.39855 10.01638 5396 ft 196 kts 24°
2026-04-23 13:00 52.41021 10.02683 5358 ft 188 kts 23°
2026-04-23 13:00 52.42151 10.03683 5284 ft 183 kts 19°
2026-04-23 13:01 52.43357 10.03736 5208 ft 174 kts 334°
2026-04-23 13:01 52.44193 10.02279 4933 ft 192 kts 297°
2026-04-23 13:01 52.44475 10.00042 4476 ft 209 kts 281°
2026-04-23 13:01 52.44608 9.97679 3996 ft 211 kts 278°
2026-04-23 13:02 52.44693 9.95306 3540 ft 210 kts 277°
2026-04-23 13:02 52.44766 9.92916 3116 ft 206 kts 277°
2026-04-23 13:02 52.44834 9.90617 2933 ft 191 kts 277°
2026-04-23 13:02 52.44891 9.88598 2898 ft 179 kts 278°
2026-04-23 13:03 52.44965 9.86556 2701 ft 178 kts 279°
2026-04-23 13:03 52.45048 9.84663 2709 ft 152 kts 279°
2026-04-23 13:03 52.45089 9.82989 2480 ft 147 kts 277°
2026-04-23 13:03 52.45113 9.81364 2118 ft 151 kts 276°
2026-04-23 13:04 52.45129 9.79659 1813 ft 149 kts 275°
2026-04-23 13:04 52.45171 9.78002 1536 ft 146 kts 277°
2026-04-23 13:04 52.45240 9.76325 1193 ft 148 kts 279°
2026-04-23 13:04 52.45307 9.74916 915 ft 149 kts 277°
2026-04-23 13:05 52.45354 9.73046 599 ft 147 kts 275°
2026-04-23 13:05 52.45396 9.71378 290 ft 144 kts 273°
2026-04-23 13:05 52.45438 9.69830 169 ft 122 kts 273°
2026-04-23 13:05 52.45467 9.68820 160 ft 79 kts 273°
2026-04-23 13:06 52.45589 9.68262 165 ft 15 kts
2026-04-23 13:06 52.45630 9.68271 164 ft 7 kts 28°
2026-04-23 13:06 52.45645 9.68371 162 ft 15 kts 95°
2026-04-23 13:07 52.45636 9.68637 158 ft 27 kts 94°
2026-04-23 13:07 52.45627 9.68963 160 ft 27 kts 92°
2026-04-23 13:07 52.45655 9.69144 163 ft 16 kts 11°
2026-04-23 13:07 52.45750 9.69179 164 ft 15 kts 31°
2026-04-23 13:08 52.45845 9.69161 163 ft 14 kts 322°
2026-04-23 13:08 52.45928 9.69056 163 ft 16 kts 323°
2026-04-23 13:08 52.46022 9.68939 163 ft 17 kts 323°
2026-04-23 13:08 52.46118 9.68820 165 ft 18 kts 322°
2026-04-23 13:09 52.46221 9.68736 171 ft 15 kts 22°
2026-04-23 13:09 52.46277 9.68882 172 ft 15 kts 69°
2026-04-23 13:09 52.46318 9.69051 174 ft 16 kts 69°
2026-04-23 13:09 52.46352 9.69190 176 ft 7 kts 69°
2026-04-23 13:10 52.46357 9.69265 176 ft 5 kts 151°
2026-04-23 13:10 52.46323 9.69290 176 ft 5 kts 158°
2026-04-23 13:10 52.46289 9.69289 176 ft 4 kts 244°
2026-04-23 13:10 52.46294 9.69247 176 ft 4 kts 336°
2026-04-23 13:11 52.46305 9.69255 176 ft 2 kts 108°
2026-04-23 13:11 52.46304 9.69257 176 ft 0 kts 112°